EW9903 Weather Reports


Display with metric or nautical units.
time (UTC)temp
F
wind
direction
speed
MPH
gust
MPH
rain 1hr
in
rain 24hr
in
rain mn
in
humidity
%
barometer
mb
20260505073634 57 259 1.0 8.0 0.00 0.00 0.00 48 1014.6
20260505073134 57 281 2.0 8.0 0.00 0.00 0.00 48 1014.6
20260505072633 57 186 1.0 8.0 0.00 0.00 0.00 47 1014.6
20260505072133 57 266 1.0 8.0 0.00 0.00 0.00 47 1014.5
20260505071635 57 192 2.0 10.0 0.00 0.00 0.00 47 1014.6
20260505071135 57 277 2.0 10.0 0.00 0.00 0.00 47 1014.7
20260505070635 57 327 2.0 9.0 0.00 0.00 0.00 47 1014.6
20260505070134 57 248 2.0 9.0 0.00 0.00 0.00 47 1014.8
20260505065634 57 250 1.0 6.0 0.00 0.00 0.00 46 1014.7
20260505065400 57 281 1.0 6.0 0.00 0.00 0.00 46 1014.8
20260505064632 57 263 0.0 4.0 0.00 0.00 0.00 45 1014.7
20260505064132 57 173 0.0 7.0 0.00 0.00 0.00 44 1014.7
20260505063632 58 285 1.0 7.0 0.00 0.00 0.00 44 1014.7
20260505063402 58 259 1.0 8.0 0.00 0.00 0.00 44 1014.6
20260505062859 58 142 1.0 10.0 0.00 0.00 0.00 44 1014.7
20260505062134 58 196 1.0 10.0 0.00 0.00 0.00 43 1014.8
20260505061632 58 189 1.0 8.0 0.00 0.00 0.00 42 1014.8
20260505061145 58 232 2.0 10.0 0.00 0.00 0.00 42 1014.8
20260505060630 58 137 1.0 10.0 0.00 0.00 0.00 42 1014.8
20260505060128 58 277 1.0 6.0 0.00 0.00 0.00 41 1014.8
20260505055629 58 263 2.0 10.0 0.00 0.00 0.00 40 1014.8
20260505055122 58 247 2.0 11.0 0.00 0.00 0.00 38 1014.7
20260505054621 58 186 1.0 11.0 0.00 0.00 0.00 37 1014.6
20260505054120 59 261 2.0 8.0 0.00 0.00 0.00 36 1014.7
20260505053620 59 164 3.0 15.0 0.00 0.00 0.00 35 1014.8
20260505053115 59 186 3.0 15.0 0.00 0.00 0.00 34 1014.8
20260505052843 59 178 1.0 9.0 0.00 0.00 0.00 32 1014.9
20260505052115 59 181 1.0 9.0 0.00 0.00 0.00 32 1014.9
20260505051616 59 180 1.0 7.0 0.00 0.00 0.00 31 1014.9
20260505051114 59 182 1.0 7.0 0.00 0.00 0.00 32 1015.0
20260505050617 59 261 2.0 9.0 0.00 0.00 0.00 32 1015.2
20260505050341 59 271 2.0 9.0 0.00 0.00 0.00 32 1015.0
20260505041603 60 198 1.0 10.0 0.00 0.00 0.00 31 1015.0
20260505041105 60 267 2.0 11.0 0.00 0.00 0.00 31 1015.0
20260505040604 60 244 2.0 11.0 0.00 0.00 0.00 31 1014.9
20260505040115 60 189 2.0 10.0 0.00 0.00 0.00 31 1015.0
20260505035607 60 278 2.0 9.0 0.00 0.00 0.00 31 1014.9
20260505035103 60 178 1.0 9.0 0.00 0.00 0.00 31 1015.0
20260505034816 60 230 1.0 6.0 0.00 0.00 0.00 31 1014.9
20260505034049 61 183 1.0 6.0 0.00 0.00 0.00 31 1014.8
20260505033550 61 173 1.0 5.0 0.00 0.00 0.00 32 1014.8
20260505033049 61 164 1.0 4.0 0.00 0.00 0.00 32 1014.6
20260505032545 61 163 1.0 4.0 0.00 0.00 0.00 31 1014.5
20260505032046 61 173 1.0 8.0 0.00 0.00 0.00 31 1014.5
20260505031541 61 173 3.0 13.0 0.00 0.00 0.00 31 1014.4
20260505031040 61 182 3.0 13.0 0.00 0.00 0.00 31 1014.4
20260505030539 61 246 2.0 7.0 0.00 0.00 0.00 31 1014.4
20260505030040 62 168 2.0 7.0 0.00 0.00 0.00 30 1014.2
20260505025539 62 180 2.0 11.0 0.00 0.00 0.00 30 1014.1
20260505025040 62 161 4.0 12.0 0.00 0.00 0.00 30 1014.1
20260505024539 62 184 3.0 12.0 0.00 0.00 0.00 30 1014.0
20260505024301 62 194 2.0 9.0 0.00 0.00 0.00 29 1014.1
20260505023537 62 169 2.0 9.0 0.00 0.00 0.00 29 1013.9
20260505023035 62 271 3.0 12.0 0.00 0.00 0.00 29 1014.0
20260505022535 62 285 3.0 12.0 0.00 0.00 0.00 29 1013.9
20260505022258 62 277 3.0 13.0 0.00 0.00 0.00 29 1013.9
20260505021533 62 208 2.0 13.0 0.00 0.00 0.00 28 1014.0
20260505021035 63 161 2.0 9.0 0.00 0.00 0.00 28 1013.8
20260505020738 63 196 2.0 9.0 0.00 0.00 0.00 28 1013.8
20260505015746 63 171 3.0 11.0 0.00 0.00 0.00 27 1013.8
20260505015014 64 186 3.0 11.0 0.00 0.00 0.00 27 1013.7
20260505014731 64 192 3.0 13.0 0.00 0.00 0.00 26 1013.7
20260505014001 64 173 3.0 13.0 0.00 0.00 0.00 26 1013.7
20260505013454 64 161 3.0 11.0 0.00 0.00 0.00 26 1013.7
20260505012949 64 251 4.0 13.0 0.00 0.00 0.00 26 1013.7
20260505012444 64 187 3.0 13.0 0.00 0.00 0.00 25 1013.4
20260505011937 65 262 3.0 16.0 0.00 0.00 0.00 25 1013.7
20260505011658 65 162 4.0 16.0 0.00 0.00 0.00 25 1013.8
20260505010938 65 185 4.0 13.0 0.00 0.00 0.00 24 1013.8
20260505010436 65 185 4.0 12.0 0.00 0.00 0.00 24 1013.9
20260505005932 65 261 3.0 12.0 0.00 0.00 0.00 23 1013.9
20260505005433 66 273 4.0 15.0 0.00 0.00 0.00 24 1013.8
20260505004934 66 105 6.0 17.0 0.00 0.00 0.00 24 1013.8
20260505004432 66 198 6.0 17.0 0.00 0.00 0.00 24 1013.8
20260505003933 66 184 5.0 16.0 0.00 0.00 0.00 23 1013.9
20260505003432 66 165 6.0 18.0 0.00 0.00 0.00 24 1013.8
20260505002933 66 207 9.0 18.0 0.00 0.00 0.00 24 1013.9
20260505002432 66 161 7.0 16.0 0.00 0.00 0.00 24 1013.8
20260505001932 66 213 4.0 15.0 0.00 0.00 0.00 24 1013.8
20260505001432 66 221 5.0 18.0 0.00 0.00 0.00 25 1014.0
20260505000932 66 161 8.0 18.0 0.00 0.00 0.00 26 1013.8
20260505000432 66 144 6.0 18.0 0.00 0.00 0.00 26 1013.9
20260505000204 67 173 4.0 21.0 0.00 0.00 0.00 26 1014.0
20260504235433 66 279 7.0 21.0 0.00 0.00 0.00 26 1013.9
20260504234929 66 180 9.0 18.0 0.00 0.00 0.00 25 1014.0
20260504234425 66 192 7.0 17.0 0.00 0.00 0.00 25 1013.9
20260504233918 67 180 5.0 17.0 0.00 0.00 0.00 25 1013.9
20260504233413 67 255 3.0 12.0 0.00 0.00 0.00 26 1013.9
20260504233130 67 264 5.0 16.0 0.00 0.00 0.00 26 1014.0
20260504232401 67 162 6.0 17.0 0.00 0.00 0.00 26 1014.1
20260504232130 67 207 5.0 17.0 0.00 0.00 0.00 26 1014.0
20260504231356 68 265 4.0 14.0 0.00 0.00 0.00 26 1013.9
20260504230857 68 203 5.0 13.0 0.00 0.00 0.00 26 1014.1
20260504230357 68 269 5.0 13.0 0.00 0.00 0.00 27 1014.0
20260504225854 68 175 4.0 19.0 0.00 0.00 0.00 26 1013.8
20260504225623 68 305 4.0 19.0 0.00 0.00 0.00 25 1013.9
20260504224857 68 180 4.0 15.0 0.00 0.00 0.00 27 1013.9
20260504224617 69 285 4.0 15.0 0.00 0.00 0.00 27 1014.0
20260504223853 69 128 5.0 19.0 0.00 0.00 0.00 28 1014.0
20260504223353 70 194 4.0 19.0 0.00 0.00 0.00 25 1013.8
20260504222851 70 169 3.0 12.0 0.00 0.00 0.00 27 1013.8
20260504222351 69 254 3.0 12.0 0.00 0.00 0.00 27 1013.7
20260504221852 69 289 3.0 16.0 0.00 0.00 0.00 26 1013.9
20260504221612 69 296 4.0 16.0 0.00 0.00 0.00 28 1013.8
20260504220850 69 270 3.0 16.0 0.00 0.00 0.00 30 1013.9
20260504220551 70 214 5.0 16.0 0.00 0.00 0.00 31 1014.0
20260504215342 70 165 5.0 16.0 0.00 0.00 0.00 31 1014.2
20260504215103 69 153 5.0 14.0 0.00 0.00 0.00 32 1014.2
20260504214342 69 171 4.0 14.0 0.00 0.00 0.00 32 1014.2
20260504214111 69 159 4.0 16.0 0.00 0.00 0.00 33 1014.4
20260504213343 68 177 6.0 22.0 0.00 0.00 0.00 32 1014.6
20260504212842 68 167 6.0 22.0 0.00 0.00 0.00 33 1014.7
20260504212605 68 173 6.0 16.0 0.00 0.00 0.00 33 1014.6
20260504211843 68 184 6.0 17.0 0.00 0.00 0.00 33 1014.7
20260504211343 69 132 5.0 17.0 0.00 0.00 0.00 33 1014.6
20260504210843 69 279 6.0 14.0 0.00 0.00 0.00 33 1014.6
20260504210339 68 188 6.0 13.0 0.00 0.00 0.00 33 1014.7
20260504205838 68 189 7.0 16.0 0.00 0.00 0.00 33 1014.6
20260504205601 68 161 7.0 16.0 0.00 0.00 0.00 32 1014.9
20260504204838 69 148 5.0 15.0 0.00 0.00 0.00 31 1014.8
20260504204339 69 238 5.0 15.0 0.00 0.00 0.00 31 1014.8
20260504203838 68 275 7.0 16.0 0.00 0.00 0.00 31 1014.7
20260504203338 68 174 7.0 17.0 0.00 0.00 0.00 32 1014.8
20260504202840 68 156 5.0 17.0 0.00 0.00 0.00 31 1014.7
20260504202603 68 217 6.0 18.0 0.00 0.00 0.00 30 1014.8
20260504202103 68 176 8.0 18.0 0.00 0.00 0.00 31 1015.2
20260504201338 67 191 8.0 17.0 0.00 0.00 0.00 30 1015.4
20260504200838 68 198 7.0 16.0 0.00 0.00 0.00 30 1015.4
20260504200338 68 188 7.0 17.0 0.00 0.00 0.00 31 1015.4
20260504195839 67 334 7.0 17.0 0.00 0.00 0.00 32 1015.2
20260504195339 68 186 7.0 15.0 0.00 0.00 0.00 31 1015.2
20260504195109 68 187 6.0 17.0 0.00 0.00 0.00 31 1015.0
20260504194609 69 175 5.0 17.0 0.00 0.00 0.00 32 1015.0
20260504193837 69 142 5.0 14.0 0.00 0.00 0.00 32 1015.0
20260504193336 69 186 6.0 15.0 0.00 0.00 0.00 33 1015.2
20260504192836 69 184 6.0 15.0 0.00 0.00 0.00 33 1015.2
20260504192337 69 263 5.0 15.0 0.00 0.00 0.00 33 1015.4
20260504191835 69 177 5.0 12.0 0.00 0.00 0.00 36 1015.5
20260504191333 68 181 5.0 15.0 0.00 0.00 0.00 36 1015.4
20260504190832 68 206 6.0 15.0 0.00 0.00 0.00 37 1015.3
20260504190335 67 213 6.0 16.0 0.00 0.00 0.00 39 1015.2
20260504190106 67 183 6.0 16.0 0.00 0.00 0.00 40 1015.2
20260504185333 67 279 6.0 15.0 0.00 0.00 0.00 39 1015.4
20260504184833 67 135 7.0 15.0 0.00 0.00 0.00 39 1015.5
20260504184332 67 207 6.0 17.0 0.00 0.00 0.00 38 1015.5
20260504183833 67 167 6.0 17.0 0.00 0.00 0.00 37 1015.4
20260504183328 66 148 8.0 20.0 0.00 0.00 0.00 37 1015.4
20260504183051 66 192 7.0 20.0 0.00 0.00 0.00 36 1015.5
20260504182318 66 180 5.0 16.0 0.00 0.00 0.00 37 1015.6
20260504181819 66 187 4.0 11.0 0.00 0.00 0.00 38 1015.6
20260504181317 66 170 3.0 11.0 0.00 0.00 0.00 36 1015.6
20260504180817 66 180 3.0 10.0 0.00 0.00 0.00 38 1015.6
20260504180316 66 127 5.0 15.0 0.00 0.00 0.00 39 1015.8
20260504180306 66 190 6.0 16.0 0.00 0.00 0.00 40 1016.0
20260504175317 66 184 4.0 16.0 0.00 0.00 0.00 40 1016.1
20260504174814 66 173 6.0 14.0 0.00 0.00 0.00 40 1016.1
20260504174315 66 184 8.0 19.0 0.00 0.00 0.00 40 1015.8
20260504173813 65 174 9.0 19.0 0.00 0.00 0.00 41 1015.8
20260504173312 65 175 9.0 17.0 0.00 0.00 0.00 43 1015.5
20260504172812 65 176 9.0 18.0 0.00 0.00 0.00 43 1015.7
20260504172310 65 164 7.0 18.0 0.00 0.00 0.00 45 1015.5
20260504171811 65 162 7.0 16.0 0.00 0.00 0.00 45 1015.6
20260504171311 65 264 7.0 16.0 0.00 0.00 0.00 45 1015.8
20260504170808 65 165 6.0 14.0 0.00 0.00 0.00 44 1015.7
20260504170306 65 171 4.0 12.0 0.00 0.00 0.00 46 1015.7
20260504150732 61 144 3.0 10.0 0.00 0.00 0.00 50 1015.4
20260504150228 61 221 3.0 10.0 0.00 0.00 0.00 50 1015.3
20260504140648 59 261 0.0 1.0 0.00 0.00 0.00 51 1015.5
20260504140414 59 261 0.0 1.0 0.00 0.00 0.00 51 1015.4
20260504130632 58 261 0.0 3.0 0.00 0.00 0.00 50 1014.9
20260504130133 58 218 0.0 3.0 0.00 0.00 0.00 50 1014.7
20260504120111 60 186 0.0 0.0 0.00 0.00 0.00 48 1014.8
20260504110603 61 273 1.0 6.0 0.00 0.00 0.00 46 1015.3
20260504100548 62 181 0.0 4.0 0.00 0.00 0.00 42 1015.6
20260504081538 64 173 5.0 17.0 0.00 0.00 0.00 36 1015.0
20260504081259 64 184 5.0 18.0 0.00 0.00 0.00 35 1014.9
20260504080534 64 170 5.0 18.0 0.00 0.00 0.00 35 1014.8